Weather History for Gwinn, MI

Change the Weather History Date:

Saturday, May 11, 2013

  Actual Average (KESC) Record (KESC)
Temperature  
Mean Temperature 36 °F -  
Max Temperature 42 °F 57 °F 82 °F (1956)
Min Temperature 30 °F 40 °F 28 °F (1990)
Degree Days  
Heating Degree Days 29    
Moisture  
Dew Point 29 °F    
Average Humidity 80    
Maximum Humidity 100    
Minimum Humidity 49    
Precipitation  
Precipitation 0.00 in - - ()
Sea Level Pressure  
Sea Level Pressure 29.83 in    
Wind  
Wind Speed 6 mph (West)    
Max Wind Speed 22 mph    
Max Gust Speed 29 mph    
Visibility 8 miles    
Events Rain , Snow    
Averages and records for this station are not official NWS values.
T = Trace of Precipitation, MM = Missing Value Source: NWS Daily Summary

Daily Weather History Graph

Daily Weather History Graph

Search for Another Location

Airport:

Trip Planner

Search our weather history database for the weather conditions in past years. The results will help you decide how hot, cold, wet, or windy it might be!

Date:

Astronomy

May. 11, 2013 Rise Set
Actual Time 6:21 AM EDT 9:11 PM EDT
Civil Twilight 5:46 AM EDT 9:46 PM EDT
Nautical Twilight 5:01 AM EDT 10:31 PM EDT
Astronomical Twilight 4:09 AM EDT 11:24 PM EDT
Moon 7:26 AM EDT (5/11) 10:53 PM EDT (5/11)
Length of Visible Light 16h 00m
Length of Day
14h 50m
Waxing Crescent, 3% of the Moon is Illuminated
May 11
Waxing Crescent
May 18
First Quarter
May 25
Full
May 31
Last Quarter
Jun 8
New

Hourly Weather History & Observations

Time (EDT) Temp. Windchill Dew Point Humidity Pressure Visibility Wind Dir Wind Speed Gust Speed Precip Events Conditions
12:17 AM 32.0 °F - 24.8 °F 75% 29.92 in 10.0 mi Calm Calm - N/A   Clear
12:37 AM 31.3 °F - 24.8 °F 77% 29.92 in 10.0 mi Calm Calm - N/A   Clear
12:57 AM 30.7 °F - 25.3 °F 80% 29.92 in 10.0 mi Calm Calm - N/A   Clear
1:16 AM 31.1 °F - 25.2 °F 79% 29.90 in 10.0 mi Calm Calm - N/A   Clear
1:37 AM 32.0 °F - 26.2 °F 79% 29.90 in 10.0 mi Calm Calm - N/A   Clear
1:57 AM 31.6 °F 28.3 °F 25.5 °F 78% 29.89 in 10.0 mi SW 3.5 mph - N/A   Clear
2:17 AM 31.8 °F 28.5 °F 26.2 °F 80% 29.88 in 10.0 mi SW 3.5 mph - N/A   Clear
2:37 AM 31.6 °F 27.0 °F 26.4 °F 81% 29.87 in 10.0 mi SW 4.6 mph - N/A   Scattered Clouds
2:57 AM 32.0 °F 27.5 °F 26.6 °F 80% 29.86 in 10.0 mi SW 4.6 mph - N/A   Mostly Cloudy
3:17 AM 33.3 °F 27.9 °F 25.9 °F 74% 29.84 in 10.0 mi SSW 5.8 mph - N/A   Overcast
3:37 AM 33.4 °F 26.6 °F 25.7 °F 73% 29.84 in 10.0 mi SSW 8.1 mph - N/A   Overcast
3:57 AM 33.8 °F 27.7 °F 27.3 °F 77% 29.82 in 10.0 mi SSW 6.9 mph - N/A   Overcast
4:17 AM 34.3 °F 28.4 °F 28.4 °F 79% 29.81 in 10.0 mi SSW 6.9 mph - N/A   Overcast
4:37 AM 34.7 °F 28.1 °F 30.2 °F 84% 29.79 in 10.0 mi SSW 8.1 mph - N/A   Overcast
4:56 AM 35.1 °F 28.6 °F 31.1 °F 85% 29.79 in 10.0 mi SW 8.1 mph - N/A   Overcast
5:17 AM 35.4 °F 29.7 °F 31.3 °F 85% 29.78 in 10.0 mi SW 6.9 mph - N/A   Overcast
5:37 AM 35.6 °F 32.8 °F 31.6 °F 85% 29.78 in 10.0 mi WSW 3.5 mph - N/A   Overcast
5:57 AM 36.1 °F - 32.0 °F 85% 29.77 in 10.0 mi Calm Calm - N/A   Overcast
6:55 AM 37.4 °F 34.9 °F 33.8 °F 87% 29.78 in 10.0 mi SW 3.5 mph - N/A Rain Light Rain
7:55 AM 37.4 °F - 35.6 °F 93% 29.77 in 10.0 mi Calm Calm - N/A Rain Light Rain
8:50 AM 35.6 °F 26.2 °F 33.8 °F 93% 29.78 in 3.0 mi NNW 15.0 mph - N/A Snow Light Snow
9:50 AM 32.0 °F 25.6 °F 32.0 °F 100% 29.78 in 0.5 mi NW 6.9 mph - N/A Snow Snow
10:50 AM 33.8 °F 25.3 °F 32.0 °F 93% 29.78 in 2.0 mi NNW 11.5 mph - N/A Snow Light Snow
11:50 AM 35.6 °F 25.5 °F 32.0 °F 87% 29.78 in 10.0 mi NNW 17.3 mph 23.0 mph N/A   Overcast
12:50 PM 37.4 °F 27.5 °F 32.0 °F 81% 29.78 in 10.0 mi NNW 18.4 mph 27.6 mph N/A   Overcast
1:50 PM 39.2 °F 29.3 °F 32.0 °F 75% 29.79 in 10.0 mi NW 20.7 mph 25.3 mph N/A   Overcast
2:50 PM 42.8 °F 34.8 °F 28.4 °F 57% 29.79 in 10.0 mi NNW 17.3 mph 25.3 mph N/A   Overcast
3:50 PM 41.0 °F 31.6 °F 26.6 °F 57% 29.81 in 10.0 mi NW 20.7 mph 27.6 mph N/A   Overcast
4:50 PM 42.8 °F 34.3 °F 24.8 °F 49% 29.80 in 10.0 mi NW 19.6 mph 27.6 mph N/A   Overcast
5:50 PM 42.8 °F 34.3 °F 24.8 °F 49% 29.80 in 10.0 mi WNW 19.6 mph 25.3 mph N/A   Overcast
6:50 PM 42.8 °F 35.8 °F 26.6 °F 53% 29.81 in 10.0 mi South 13.8 mph - N/A   Mostly Cloudy
7:55 PM 37.4 °F 26.6 °F 32.0 °F 81% 29.82 in 10.0 mi WNW 21.9 mph - N/A   Overcast
8:55 PM 35.6 °F 25.5 °F 30.2 °F 81% 29.83 in 10.0 mi NNW 17.3 mph 28.8 mph N/A   Overcast
9:50 PM 35.6 °F 26.6 °F 30.2 °F 81% 29.83 in 7.0 mi NW 13.8 mph 19.6 mph N/A Snow Light Snow
10:17 PM 33.8 °F 24.3 °F 31.3 °F 90% 29.84 in 2.5 mi NW 13.8 mph 25.3 mph N/A Snow Light Snow
10:37 PM 33.3 °F 23.7 °F 31.6 °F 94% 29.84 in 2.5 mi NW 13.8 mph 21.9 mph N/A Snow Light Snow
10:57 PM 32.9 °F 23.2 °F 31.1 °F 93% 29.84 in 1.5 mi NNW 13.8 mph 24.2 mph N/A Snow Light Snow
11:17 PM 32.5 °F 23.7 °F 31.6 °F 96% 29.84 in 1.8 mi NNW 11.5 mph - N/A Snow Light Snow
11:37 PM 32.5 °F 22.7 °F 31.6 °F 96% 29.84 in 2.5 mi NNW 13.8 mph 24.2 mph N/A Snow Light Snow
11:57 PM 32.7 °F 23.0 °F 31.1 °F 94% 29.84 in 2.5 mi NNW 13.8 mph - N/A Snow Light Snow